www.pogodaiklimat.ru

Погода и климат >> Архив погоды >> Австрия >> Личау


ПОГОДА в Личау

  • Прогноз погоды в Личау
  • Монитор погоды в Личау

АРХИВ ПОГОДЫ в Личау

Время (UTC), дата Ветер
(напр.,м/с)
 
Видим.   Явления Облачность Т
(С)
Тd
(С)
f
(%)
Тe
(С)
Тes
(С)
Комфортность P
(гПа)
Po
(гПа)
Тmin
(С)
Tmax
(С)
R
(мм)
R24
(мм)
S
(см)
10 10.08 СЗ 1 н/о н/о +24.6 +17.7 65 +29 +29 душно 1014.5 952.5 0.0
11 10.08 З 2 н/о н/о +25.6 +18.2 64 +30 +30 душно 1014.1 952.4
12 10.08 З 2 н/о {осадки} н/о +26.9 +17.7 57 +31 +31 душно 1013.9 952.4 0.1
13 10.08 С 2 н/о н/о +25.6 +17.4 61 +30 +30 душно 1014.3 952.5
14 10.08 С 3 н/о н/о +23.4 +17.2 68 +29 +29 душно 1015.3 953.0 0.0
15 10.08 СЗ 2 н/о туман на расстоянии {ливн. осадки} н/о +19.1 +15.9 82 +21 +22 комфорт 1017.5 954.2 2
16 10.08 С 1 н/о в посл. час осадки н/о +17.9 +13.2 74 +19 +19 1018.3 954.6 0.1
17 10.08 С 1 н/о ливневой дождь {осадки} н/о +16.2 +14.6 90 +17 +17 1019.0 954.9 0.1
18 10.08 штиль 0 5000 м слаб. дождь 10/10 300 м
[Frnb]
+15.9 +14.7 93 +16 +16 1019.3 955.1 +15.8 +27.3 2
19 10.08 Ю 1 н/о ливневой дождь н/о +15.7 +15.0 96 +16 +16 1019.5 955.3 0.1
20 10.08 штиль 0 н/о ливневой дождь н/о +15.5 +14.7 95 +15 +15 1019.8 955.5 0.1
21 10.08 штиль 0 н/о {ливн. осадки} н/о +15.1 +14.6 97 +15 +15 1020.1 955.7 0.2
22 10.08 З 1 н/о н/о +15.3 +14.7 96 +16 +16 1020.2 955.9
23 10.08 ЮЗ 1 н/о н/о +15.5 +15.0 97 +16 +16 1020.5 956.2
00 11.08 З 1 н/о ливневой дождь н/о +15.8 +15.1 96 +16 +16 1020.4 956.2 0.3
01 11.08 СЗ 1 н/о н/о +15.6 +14.9 96 +16 +16 1020.3 956.0 0.0
02 11.08 штиль 0 н/о н/о +14.4 +13.9 97 +14 +14 1021.1 956.5
03 11.08 штиль 0 н/о осадки н/о +13.9 +13.4 97 +13 +13 1021.2 956.5
04 11.08 штиль 0 н/о н/о +13.5 +13.1 97 +13 +13 1021.5 956.6
05 11.08 штиль 0 3000 м дымка {дождь} 4/4 1000 м
[Cu hum]
+13.4 +13.1 98 +13 +13 1021.6 956.7
06 11.08 штиль 0 н/о н/о +15.5 +14.9 96 +15 +15 1021.2 956.8 +13.3 +15.9
07 11.08 штиль 0 н/о н/о +18.4 +15.2 82 +19 +19 1020.6 956.9
08 11.08 Ю 1 н/о н/о +19.4 +15.2 77 +22 +22 комфорт 1019.8 956.4
09 11.08 ЮВ 1 5000 м мгла 8/8 600 м
[Cu Sc]
+21.6 +14.2 63 +25 +27 комфорт 1019.5 956.5
10 11.08 Ю 1 н/о н/о +23.2 +12.2 50 +26 +26 жарко 1018.5 955.9
11 11.08 ЮВ 1 н/о н/о +23.0 +12.6 52 +26 +26 жарко 1018.2 955.5
12 11.08 Ю 2 н/о н/о +23.9 +12.6 49 +26 +26 жарко 1017.0 954.6
13 11.08 Ю 2 н/о н/о +24.2 +13.1 50 +26 +26 жарко 1016.5 954.2
14 11.08 В 2 н/о н/о +25.2 +12.3 45 +27 +27 жарко 1015.3 953.3
15 11.08 ЮВ 2 10 км ясно +25.2 +11.6 43 +27 +32 жарко 1014.5 952.5
16 11.08 ЮВ 2 н/о н/о +24.6 +12.1 46 +26 +26 жарко 1013.9 951.8
17 11.08 ЮВ 2 н/о н/о +23.7 +13.7 53 +26 +26 жарко 1013.3 951.1
18 11.08 ЮВ 2 10 км ясно +22.5 +14.2 59 +26 +26 жарко 1013.3 950.9 +14.8 +25.7
19 11.08 ЮВ 2 н/о н/о +21.4 +14.4 64 +24 +24 комфорт 1013.1 950.5
20 11.08 В 2 н/о н/о +20.6 +14.0 66 +24 +24 комфорт 1011.8 949.1
21 11.08 ЮВ 2 н/о н/о +20.0 +13.9 68 +23 +23 комфорт 1011.7 948.9
22 11.08 ЮВ 1 н/о н/о +19.4 +13.8 70 +22 +22 комфорт 1012.1 949.1
23 11.08 ЮВ 1 н/о н/о +18.4 +13.7 74 +20 +20 1012.8 949.6
00 12.08 С 1 н/о н/о +18.0 +13.9 77 +19 +19 1013.8 950.4
01 12.08 штиль 0 н/о н/о +16.6 +13.8 84 +16 +16 1013.6 949.9
02 12.08 З 1 н/о н/о +16.4 +13.7 84 +17 +17 1014.3 950.5
03 12.08 штиль 0 н/о н/о +15.1 +13.5 90 +15 +15 1014.6 950.5
04 12.08 штиль 0 н/о н/о +15.4 +13.7 90 +15 +15 1015.1 951.1
05 12.08 СЗ 2 10 км 8/8 600 м
[Cu Sc]
+17.6 +14.6 83 +18 +18 1014.7 951.2
06 12.08 СЗ 2 н/о н/о +17.9 +15.2 84 +18 +19 1015.4 951.9 +14.8 +22.7
07 12.08 СЗ 1 н/о н/о +18.1 +15.9 87 +19 +19 1016.0 952.5
08 12.08 СЗ 2 н/о н/о +19.3 +16.0 81 +22 +22 комфорт 1016.2 953.0
09 12.08 СЗ 2 н/о н/о +20.6 +15.7 73 +24 +24 комфорт 1015.8 952.9
10 12.08 СЗ 2 н/о н/о +22.0 +16.1 69 +26 +26 душно 1015.5 952.9
11 12.08 СЗ 1 н/о н/о +22.2 +15.5 66 +26 +26 душно 1015.1 952.5
12 12.08 СЗ 2 10 км 8/8 600 м
[Cu Sc]
+23.1 +16.1 65 +28 +30 душно 1014.6 952.3
13 12.08 СЗ 1 н/о н/о +21.8 +15.8 69 +25 +25 комфорт 1014.8 952.2
14 12.08 С 1 н/о н/о +21.6 +15.6 69 +25 +25 комфорт 1014.0 951.4 0.0
15 12.08 СЗ 2 1000 м в посл. час гроза 10/10 300 м
[Cb cap]
+19.2 +16.3 83 +21 +21 комфорт 1016.2 953.0 0.8
16 12.08 С 3 н/о н/о +16.9 +16.2 96 +17 +17 1016.7 953.0 9
17 12.08 штиль 0 н/о в посл. час осадки н/о +16.6 +15.9 96 +16 +16 1015.8 952.0 0.9
18 12.08 штиль 0 5000 м дымка {гроза} 9/9 300 м
[Sc]
+16.6 +16.1 97 +16 +16 1015.1 951.4 +16.5 +23.9 11
19 12.08 СЗ 1 н/о н/о +16.4 +15.9 97 +17 +17 1015.2 951.4 0.0
20 12.08 СЗ 2 н/о осадки н/о +16.2 +15.8 97 +16 +16 1016.6 952.7 0.2
21 12.08 СЗ 2 н/о ливневой дождь {осадки} н/о +15.4 +15.0 97 +15 +15 1017.3 953.2 3
22 12.08 С 1 н/о осадки н/о +15.0 +14.6 97 +15 +15 1017.5 953.3 4
23 12.08 СЗ 1 н/о в посл. час осадки н/о +15.0 +14.6 97 +15 +15 1017.6 953.4 0.3
00 13.08 штиль 0 н/о в посл. час осадки {ливн. осадки} н/о +15.0 +14.5 97 +15 +15 1017.4 953.2 7
01 13.08 СЗ 1 н/о н/о +15.0 +14.7 98 +15 +15 1017.4 953.2 0.0
02 13.08 штиль 0 н/о в посл. час осадки н/о +15.0 +14.7 98 +15 +15 1017.4 953.2 0.1
03 13.08 З 1 н/о {осадки} н/о +15.0 +14.6 97 +15 +15 1017.5 953.3 0.1
04 13.08 З 1 н/о в посл. час осадки н/о +14.8 +14.4 97 +15 +15 1017.6 953.3 0.1
05 13.08 З 1 5000 м дымка {дождь} 9/9 300 м
[Sc]
+14.7 +14.1 96 +15 +15 1017.8 953.5
06 13.08 СЗ 1 н/о н/о +15.0 +14.5 97 +15 +16 1018.3 954.0 +14.6 +16.8 7
07 13.08 З 1 н/о н/о +15.5 +14.8 96 +16 +16 1018.6 954.4
08 13.08 СЗ 1 н/о н/о +16.0 +14.5 91 +17 +17 1018.7 954.6
09 13.08 З 1 5000 м дымка 8/8 600 м
[Cu Sc]
+16.7 +15.0 90 +18 +20 1018.7 954.8
10 13.08 З 1 н/о н/о +16.3 +14.5 89 +17 +17 1018.7 954.7 0.0
11 13.08 З 1 н/о осадки н/о +16.1 +15.0 93 +17 +17 1018.9 954.8 0.1
12 13.08 штиль 0 н/о в посл. час осадки н/о +16.8 +14.8 88 +17 +17 1018.5 954.6 0.2
13 13.08 ЮЗ 1 н/о н/о +18.1 +14.7 81 +19 +19 1017.8 954.2
14 13.08 З 1 н/о н/о +17.5 +14.8 84 +19 +19 1017.5 953.8
15 13.08 ЮЗ 1 10 км 8/8 600 м
[Cu Sc]
+17.0 +14.9 87 +18 +19 1017.4 953.6
16 13.08 З 1 н/о н/о +17.5 +14.6 83 +19 +19 1017.1 953.4
17 13.08 З 1 н/о н/о +16.9 +14.6 86 +18 +18 1017.1 953.3
18 13.08 штиль 0 5000 м дымка 9/9 300 м
[Sc]
+16.2 +14.7 91 +16 +16 1017.1 953.1 +14.8 +18.4 0.2
19 13.08 штиль 0 н/о осадки н/о +15.3 +14.5 95 +15 +15 1018.0 953.8 0.1
20 13.08 СЗ 1 н/о осадки н/о +14.7 +14.0 96 +15 +15 1018.9 954.5 1
21 13.08 З 1 н/о осадки н/о +13.8 +13.2 96 +14 +14 1019.5 954.8 3
22 13.08 Ю 1 н/о в посл. час осадки н/о +13.2 +12.7 97 +13 +13 1018.8 954.0 1
23 13.08 З 1 н/о н/о +12.9 +12.2 96 +13 +13 1019.2 954.3
00 14.08 З 1 н/о {осадки} н/о +12.5 +12.0 97 +12 +12 1018.7 953.8 5
01 14.08 З 1 н/о н/о +12.2 +11.5 95 +12 +12 1018.6 953.6
02 14.08 СЗ 1 н/о н/о +11.8 +11.3 97 +12 +12 1018.8 953.7
03 14.08 СЗ 1 н/о н/о +11.4 +10.9 97 +11 +11 1019.2 954.0
04 14.08 СЗ 1 н/о н/о +11.1 +10.8 98 +11 +11 1019.4 954.1
05 14.08 СЗ 1 5000 м дымка 10/10 300 м
[St]
+11.3 +11.0 98 +11 +11 1019.3 954.1
06 14.08 СЗ 1 5000 м дымка 9/9 300 м
[Sc]
+12.0 +11.5 97 +12 +12 1019.7 954.6 +11.1 +16.5 5
07 14.08 СЗ 1 н/о н/о +13.7 +11.5 87 +14 +14 1019.4 954.7
08 14.08 З 1 н/о н/о +15.4 +12.3 82 +16 +16 1018.9 954.6
09 14.08 СЗ 1 10 км 8/8 600 м
[Cu Sc]
+16.5 +11.7 73 +17 +20 1018.7 954.6
10 14.08 СЗ 2 н/о н/о +17.9 +9.6 58 +18 +18 1018.4 954.6
11 14.08 С 2 н/о н/о +18.1 +7.0 48 +19 +19 1018.3 954.5
12 14.08 СЗ 2 10 км 8/8 600 м
[Cu Sc]
+19.0 +7.2 46 +20 +23 1018.1 954.5
13 14.08 С 2 н/о н/о +18.8 +7.1 46 +20 +20 1017.8 954.2
14 14.08 З 1 н/о н/о +18.2 +7.7 50 +19 +19 1017.8 954.1
15 14.08 З 1 10 км 5/5 1000 м
[Cu med, cong]
+18.7 +7.0 46 +20 +23 1017.4 953.8
16 14.08 З 1 н/о н/о +12.7 +11.6 93 +13 +13 1019.4 954.5 5
17 14.08 штиль 0 н/о в посл. час осадки н/о +13.4 +12.8 96 +13 +13 1018.8 954.1 0.2
18 14.08 СЗ 1 н/о {ливн. осадки} н/о +12.5 +11.4 93 +12 +12 1019.2 954.2 +11.9 +20.8 6
19 14.08 СЗ 1 н/о н/о +10.8 +10.3 97 +10 +10 1019.9 954.5
20 14.08 штиль 0 н/о н/о +10.4 +9.9 97 +10 +10 1020.3 954.8
21 14.08 штиль 0 н/о н/о +9.7 +9.3 97 +9 +9 1020.5 954.8
22 14.08 штиль 0 н/о н/о +9.1 +9.0 99 +8 +8 1020.6 954.7
23 14.08 штиль 0 н/о н/о +8.2 +8.0 99 +7 +7 1020.7 954.6
00 15.08 штиль 0 н/о н/о +7.9 +7.4 97 +7 +7 1020.7 954.5
01 15.08 штиль 0 н/о н/о +7.4 +6.9 97 +6 +6 1020.6 954.3
02 15.08 штиль 0 н/о н/о +6.8 +6.5 98 +6 +6 1020.4 954.0
03 15.08 штиль 0 н/о н/о +6.5 +6.2 98 +5 +5 1020.1 953.6
04 15.08 штиль 0 н/о н/о +6.1 +5.8 98 +5 +5 1019.9 953.4
05 15.08 штиль 0 3000 м дымка ясно +6.6 +6.3 98 +5 +5 1019.9 953.5
06 15.08 штиль 0 4000 м дымка ясно +10.3 +9.7 96 +9 +13 1018.6 953.2 +6.1 +13.0
07 15.08 Ю 1 н/о н/о +14.4 +11.1 81 +15 +15 1017.1 952.7
08 15.08 ЮВ 1 н/о н/о +18.0 +10.8 63 +19 +19 1016.1 952.5
09 15.08 Ю 2 10 км 3/3 1000 м
[Cu hum]
+19.2 +7.5 47 +20 +29 1015.7 952.3
10 15.08 ЮВ 1 н/о н/о +20.4 +7.6 44 +23 +23 комфорт 1015.0 951.9
11 15.08 Ю 2 н/о н/о +20.6 +7.5 43 +22 +22 комфорт 1014.4 951.4 0.0
12 15.08 ЮЗ 2 н/о н/о +21.6 +7.8 41 +23 +23 комфорт 1013.8 951.0 0.0
13 15.08 Ю 1 н/о н/о +22.3 +7.3 38 +23 +23 комфорт 1013.1 950.5
14 15.08 З 1 н/о н/о +23.1 +7.2 36 +24 +24 комфорт 1012.8 950.4
15 15.08 ЮЗ 1 н/о н/о +21.8 +7.9 41 +23 +23 комфорт 1013.2 950.5
16 15.08 З 1 н/о н/о +20.9 +8.5 45 +23 +23 комфорт 1013.3 950.4
17 15.08 З 1 н/о н/о +20.4 +9.0 48 +23 +23 комфорт 1013.5 950.5 0.0
18 15.08 З 1 н/о н/о +19.0 +10.5 58 +21 +21 комфорт 1014.2 950.9 +9.6 +23.3 0.0
19 15.08 СЗ 1 н/о н/о +17.9 +10.9 64 +19 +19 1014.9 951.4 0.0
20 15.08 СЗ 1 н/о н/о +16.6 +11.1 70 +17 +17 1015.8 951.9 0.0
21 15.08 штиль 0 н/о н/о +16.1 +11.4 74 +16 +16 1016.1 952.1 0.0
22 15.08 штиль 0 н/о н/о +15.6 +11.5 77 +15 +15 1016.6 952.5
23 15.08 штиль 0 н/о н/о +14.7 +11.6 82 +14 +14 1016.6 952.3
00 16.08 штиль 0 н/о в посл. час осадки н/о +14.2 +13.3 94 +14 +14 1016.7 952.3 1
01 16.08 штиль 0 н/о н/о +13.7 +12.7 94 +13 +13 1016.9 952.4 0.0
02 16.08 штиль 0 н/о н/о +12.9 +12.0 94 +12 +12 1017.2 952.5
03 16.08 З 1 н/о н/о +13.3 +12.3 94 +13 +13 1017.4 952.7 0.0
04 16.08 ЮЗ 1 н/о н/о +13.6 +12.4 92 +14 +14 1017.7 953.1
05 16.08 З 1 5000 м дымка 8/8 600 м
[Cu Sc]
+13.9 +12.8 93 +14 +14 1017.7 953.2
06 16.08 З 1 5000 м дымка 10/10 300 м
[St]
+14.5 +13.0 91 +15 +15 1018.2 953.8 +12.3 +19.4 1
07 16.08 СЗ 2 н/о в посл. час осадки н/о +14.6 +12.8 89 +14 +14 1018.6 954.2 0.1
08 16.08 СЗ 2 н/о н/о +15.4 +12.5 83 +15 +15 1018.8 954.5
09 16.08 СЗ 1 5000 м слаб. ливневой дождь 9/9 300 м
[Sc]
+14.7 +13.5 93 +15 +16 1019.1 954.7 0.6
10 16.08 СЗ 2 н/о н/о +17.1 +13.5 79 +17 +17 1018.3 954.4
11 16.08 СЗ 2 н/о н/о +19.1 +12.1 64 +21 +21 комфорт 1017.4 954.0 0.0
12 16.08 З 1 н/о в посл. час дождь {ливн. осадки} н/о +16.2 +13.1 82 +17 +20 1018.5 954.4 1
13 16.08 З 1 н/о н/о +18.4 +12.8 70 +20 +20 1017.7 954.1
14 16.08 З 1 н/о н/о +18.4 +11.7 65 +20 +20 1017.3 953.7
15 16.08 З 1 5000 м слаб. дождь 10/10 300 м
[Frnb]
+15.4 +13.2 87 +16 +16 1018.2 954.0 0.8
16 16.08 СВ 1 н/о в посл. час осадки н/о +16.7 +13.5 81 +18 +18 1017.5 953.6 0.4
17 16.08 штиль 0 н/о н/о +16.7 +14.9 89 +17 +17 1017.5 953.6
18 16.08 штиль 0 н/о {осадки} н/о +15.6 +14.4 93 +15 +15 1017.7 953.6 +14.4 +19.9 3
19 16.08 штиль 0 н/о н/о +14.2 +13.4 95 +14 +14 1018.5 954.0
20 16.08 штиль 0 н/о н/о +13.0 +12.3 96 +12 +12 1019.0 954.2
21 16.08 штиль 0 н/о н/о +12.0 +11.4 96 +11 +11 1019.1 954.0
22 16.08 штиль 0 н/о н/о +11.4 +10.8 96 +11 +11 1018.9 953.7
23 16.08 штиль 0 н/о н/о +10.7 +10.2 97 +10 +10 1019.2 953.8
00 17.08 штиль 0 н/о н/о +10.1 +9.7 97 +9 +9 1019.0 953.5
01 17.08 штиль 0 н/о н/о +9.7 +9.3 97 +9 +9 1018.8 953.2
02 17.08 штиль 0 н/о н/о +8.9 +8.5 97 +8 +8 1018.5 952.7
03 17.08 штиль 0 н/о н/о +8.6 +8.1 97 +8 +8 1018.6 952.7
05 17.08 штиль 0 5000 м дымка 8/8 600 м
[Cu Sc]
+9.6 +9.2 97 +9 +9 1018.5 952.9
06 17.08 штиль 0 5000 м дымка 8/0
[Cc]
+11.8 +11.2 96 +11 +14 1017.7 952.7 +8.1 +15.8
07 17.08 штиль 0 н/о н/о +15.5 +13.0 85 +15 +15 1016.8 952.7
08 17.08 Ю 1 н/о н/о +17.3 +12.9 75 +18 +18 1016.6 952.9
09 17.08 Ю 2 5000 м мгла 9/9 300 м
[Sc]
+17.9 +10.6 62 +18 +20 1016.6 952.9
10 17.08 Ю 2 н/о н/о +19.3 +10.7 57 +21 +21 комфорт 1015.9 952.6

 

Местоположение метеостанции Личау (Австрия): широта 48.95 долгота 15.03 высота над уровнем моря 555 м.

В архиве по умолчанию представлена погода в Личау за последнюю неделю. Архивные данные за месяц целиком и за предыдущие месяцы, начиная с января 2011 года, Вы можете получить, выбрав интересующий диапазон дат из раскрывающегося списка и нажав кнопку "Ввод!".


*Определитесь, кто Вы:
робот инопланетянин человек

Внимание! Время в таблицах - всемирное. Для получения местного времени необходимо прибавить поправку, которая равна 1 ч.

Смотрите также архив погоды в соседних городах и на ближайших метеорологических станциях:

Погода в Вайтре (Австрия) (30 км)
Погода в Цветле (Австрия) (39 км)
Погода в Аллентштайге (Австрия) (39 км)
Погода в Ческе-Будеёвице (Чехия) (41 км)
Погода в Церкви Мыслова (Чехия) (41 км)
Погода в Темелине (Чехия) (58 км)
Погода в Бернкопфе (Австрия) (62 км)
Погода в Гарс-ам-Кампе (Австрия) (62 км)
Погода в Кресин-Крамолине (Чехия) (70 км)
Погода в Реце (Австрия) (70 км)

Пояснения к столбцам:

Ветер - указаны скорость ветра в м/с - средняя за 10 мин, порывы в срок и между сроками (в фигурных скобках) и направление, откуда дует ветер: С - северный, СВ - северо-восточный, В - восточный, ЮВ - юго-восточный, Ю - южный, ЮЗ - юго-западный, З - западный, СЗ - северо-западный.
Видимость - горизонтальная дальность видимости в метрах или километрах. При видимости от 1 до 10 км при отсутствии осадков обычно наблюдается дымка, при ухудшении видимости до 1 км и менее - туман. В сухую погоду видимость может ухудшаться дымом, пылью или мглою.
Явления - указаны атмосферные явления, наблюдавшиеся в срок или в последний час перед сроком; фигурными скобками обозначены явления, наблюдавшиеся между сроками (за 1-3 часа до срока); квадратными скобками обозначены град или гололедные отложения с указанием их диаметра в мм.
Облачность - указаны через наклонную черту общая и нижняя облачность в баллах и высота нижней границы облаков в метрах; квадратными скобками обозначены формы облаков: Ci - перистые, Cs - перисто-слоистые, Cc - перисто-кучевые, Ac - высококучевые, As - высокослоистые, Sc - слоисто-кучевые, Ns - слоисто-дождевые, Cu - кучевые, Cb - кучево-дождевые. Подробнее классификацию облаков см. в Атласе облаков (PDF).
T - Температура воздуха - температура, измеренная на высоте 2 м над землей.
Td - Температура точки росы - температура, при понижении до которой содержащийся в воздухе водяной пар достигнет насыщения.
f - Относительная влажность воздуха - влажноcть воздуха, измеренная на высоте 2 м над землей.
Te - Эффективная температура - температура, которую ощущает одетый по сезону человек в тени. Характеристика душности погоды. При расчете учитывается влияние влажности воздуха и скорости ветра на теплоощущения человека.
Tes - Эффективная температура на солнце - температура, которую ощущает человек, с поправкой на солнечный нагрев. Характеристика знойности погоды. Зависит от высоты солнца над горизонтом, облачности и скорости ветра. Ночью, в пасмурную погоду, а также при ветре 12 м/с и более поправка равна нулю.
P - Атмосферное давление - приведенное к уровню моря атмосферное давление.
Po - Атмосферное давление - измеренное на уровне метеостанции атмосферное давление.
Tmin - Минимальная температура - минимум температуры воздуха на высоте 2 м над землей.
Tmax - Максимальная температура - максимум температуры воздуха на высоте 2 м над землей.
R - Количество осадков - Количество выпавших осадков за период времени, мм. При наведении курсора мыши на число - период времени, за который выпало указанное количество осадков.
R24 - Количество осадков - Количество выпавших осадков за 24 часа, мм.
S - Снежный покров - Высота снежного покрова, см. При наведении курсора мыши на число - состояние снежного покрова и степень покрытия местности в баллах.